Date String (YYYY-MM-DD hh:mm:ss) UTC,Instrument flags,Ambient pressure (hPa),Sample flow (lpm),Bypass flow (lpm),Sample temperature (°C),Ambient temperature (°C),ASC tube jacket temperature (°C),LED temperature (°C),Box temperature (°C),Sample RH (%),Span deviation,Mass concentration (μg/m³),Mass concentration (μg/m³),Mass concentration (μg/m³)
DateTimeUTC,F1_M11,P_M11,Q1_M11,Q2_M11,T1_M11,T2_M11,T3_M11,T4_M11,T5_M11,U1_M11,ZSPAN_M11,X0_M11,X2_M11,X1_M11
2022-07-18 01:00:00,,0827.9,5.01,0.00,29.3,27.9,00.0,37.9,31.2,23.5,0000.0,0012.39,0006.45,0005.50
2022-07-18 01:01:00,,0827.7,4.99,0.00,29.3,28.1,00.0,37.9,31.3,23.3,0000.0,0012.92,0006.43,0005.49
2022-07-18 01:02:00,,0827.7,5.01,0.00,29.3,27.9,00.0,37.9,31.3,23.0,0000.0,0012.97,0006.43,0005.49
2022-07-18 01:03:00,,0827.7,5.00,0.00,29.3,27.3,00.0,37.8,31.2,22.9,0000.0,0013.29,0006.43,0005.49
2022-07-18 01:04:00,,0827.7,4.99,0.00,29.3,27.1,00.0,37.8,31.2,23.0,0000.0,0013.25,0006.42,0005.49
2022-07-18 01:05:00,,0827.7,5.00,0.00,29.3,27.2,00.0,37.8,31.1,22.9,0000.0,0013.31,0006.43,0005.47
2022-07-18 01:06:00,,0827.7,5.00,0.00,29.2,27.4,00.0,37.9,31.1,23.2,0000.0,0013.94,0006.39,0005.45
2022-07-18 01:07:00,,0827.7,5.00,0.00,29.2,27.6,00.0,37.9,31.1,23.0,0000.0,0013.61,0006.34,0005.44
2022-07-18 01:08:00,,0827.7,4.99,0.00,29.3,27.8,00.0,37.9,31.2,22.8,0000.0,0013.66,0006.25,0005.41
2022-07-18 01:09:00,,0827.7,5.00,0.00,29.3,28.0,00.0,37.9,31.3,22.7,0000.0,0013.93,0006.27,0005.41
2022-07-18 01:10:00,,0827.7,5.00,0.00,29.3,27.8,00.0,37.9,31.3,22.6,0000.0,0013.92,0006.25,0005.42
2022-07-18 01:11:00,,0827.7,5.00,0.00,29.3,27.2,00.0,37.8,31.2,22.7,0000.0,0014.38,0006.31,0005.45
2022-07-18 01:12:00,,0827.7,5.00,0.00,29.3,27.0,00.0,37.8,31.1,23.0,0000.0,0013.98,0006.38,0005.49
2022-07-18 01:13:00,,0827.7,5.01,0.00,29.2,27.1,00.0,37.8,31.0,23.2,0000.0,0014.16,0006.43,0005.52
2022-07-18 01:14:00,,0827.7,4.99,0.00,29.2,27.3,00.0,37.9,31.1,23.5,0000.0,0015.22,0006.47,0005.55
2022-07-18 01:15:00,,0827.7,5.00,0.00,29.2,27.5,00.0,37.9,31.1,23.6,0000.0,0015.42,0006.51,0005.58
2022-07-18 01:16:00,,0827.7,5.01,0.00,29.3,27.8,00.0,37.9,31.2,23.8,0000.0,0015.67,0006.49,0005.61
2022-07-18 01:17:00,,0827.7,5.00,0.00,29.3,28.0,00.0,37.9,31.3,24.0,0000.0,0014.99,0006.53,0005.65
2022-07-18 01:18:00,,0827.7,5.00,0.00,29.3,28.1,00.0,37.9,31.3,24.2,0000.0,0014.99,0006.59,0005.70
2022-07-18 01:19:00,,0827.7,5.00,0.00,29.4,27.5,00.0,37.9,31.3,24.1,0000.0,0014.58,0006.67,0005.76
2022-07-18 01:20:00,,0827.7,5.00,0.00,29.3,27.0,00.0,37.8,31.2,24.4,0000.0,0014.60,0006.73,0005.79
2022-07-18 01:21:00,,0827.7,5.00,0.00,29.3,27.1,00.0,37.8,31.1,24.5,0000.0,0014.49,0006.78,0005.82
2022-07-18 01:22:00,,0827.7,5.00,0.00,29.3,27.2,00.0,37.9,31.1,24.5,0000.0,0014.04,0006.78,0005.80
2022-07-18 01:23:00,,0827.7,5.01,0.00,29.2,27.4,00.0,37.9,31.1,24.5,0000.0,0014.31,0006.75,0005.80
2022-07-18 01:24:00,,0827.7,4.99,0.00,29.3,27.7,00.0,37.9,31.2,24.5,0000.0,0014.39,0006.73,0005.82
2022-07-18 01:25:00,,0827.7,5.02,0.00,29.3,27.9,00.0,37.9,31.3,24.5,0000.0,0013.02,0006.72,0005.82
2022-07-18 01:26:00,,0827.7,4.99,0.00,29.3,28.0,00.0,37.9,31.3,24.4,0000.0,0012.66,0006.75,0005.83
2022-07-18 01:27:00,,0827.7,5.01,0.00,29.3,27.4,00.0,37.9,31.3,24.7,0000.0,0012.38,0006.77,0005.84
2022-07-18 01:28:00,,0827.7,5.01,0.00,29.3,27.0,00.0,37.8,31.2,24.8,0000.0,0012.35,0006.76,0005.85
2022-07-18 01:29:00,,0827.7,5.00,0.00,29.3,27.0,00.0,37.8,31.1,24.5,0000.0,0012.41,0006.78,0005.84
2022-07-18 01:30:00,,0827.7,5.00,0.00,29.2,27.2,00.0,37.9,31.0,24.9,0000.0,0012.53,0006.78,0005.84
2022-07-18 01:31:00,,0827.8,5.00,0.00,29.2,27.4,00.0,37.9,31.1,25.2,0000.0,0012.93,0006.77,0005.84
2022-07-18 01:32:00,,0827.7,4.99,0.00,29.2,27.6,00.0,37.9,31.1,25.4,0000.0,0013.00,0006.69,0005.84
2022-07-18 01:33:00,,0827.7,5.01,0.00,29.3,27.8,00.0,37.9,31.2,25.6,0000.0,0013.53,0006.68,0005.85
2022-07-18 01:34:00,,0827.7,5.00,0.00,29.3,28.1,00.0,37.9,31.3,25.8,0000.0,0013.87,0006.69,0005.85
2022-07-18 01:35:00,,0827.7,5.01,0.00,29.3,27.9,00.0,37.9,31.3,25.9,0000.0,0013.49,0006.73,0005.86
2022-07-18 01:36:00,,0827.8,4.99,0.00,29.3,27.2,00.0,37.9,31.2,25.6,0000.0,0014.10,0006.74,0005.85
2022-07-18 01:37:00,,0827.7,5.00,0.00,29.3,27.0,00.0,37.8,31.1,25.3,0000.0,0014.27,0006.71,0005.84
2022-07-18 01:38:00,,0827.7,5.00,0.00,29.2,27.1,00.0,37.9,31.0,25.4,0000.0,0014.99,0006.68,0005.83
2022-07-18 01:39:00,,0827.7,5.00,0.00,29.2,27.3,00.0,37.9,31.0,25.4,0000.0,0016.26,0006.69,0005.80
2022-07-18 01:40:00,,0827.7,5.01,0.00,29.2,27.5,00.0,37.9,31.1,25.6,0000.0,0017.29,0006.72,0005.80
2022-07-18 01:41:00,,0827.7,4.99,0.00,29.2,27.7,00.0,37.9,31.2,25.9,0000.0,0018.34,0006.73,0005.80
2022-07-18 01:42:00,,0827.7,5.00,0.00,29.3,27.9,00.0,37.9,31.3,25.9,0000.0,0018.91,0006.67,0005.77
2022-07-18 01:43:00,,0827.7,5.00,0.00,29.3,28.0,00.0,37.9,31.3,25.8,0000.0,0019.59,0006.69,0005.75
2022-07-18 01:44:00,,0827.7,5.00,0.00,29.3,27.5,00.0,37.9,31.2,25.8,0000.0,0020.21,0006.66,0005.71
2022-07-18 01:45:00,,0827.7,5.01,0.00,29.3,27.0,00.0,37.8,31.2,25.8,0000.0,0020.59,0006.62,0005.69
2022-07-18 01:46:00,,0827.7,4.99,0.00,29.3,27.0,00.0,37.8,31.1,25.9,0000.0,0020.54,0006.58,0005.64
2022-07-18 01:47:00,,0827.7,5.00,0.00,29.2,27.1,00.0,37.8,31.0,26.0,0000.0,0021.44,0006.60,0005.61
2022-07-18 01:48:00,,0827.7,5.00,0.00,29.2,27.3,00.0,37.9,31.0,26.0,0000.0,0022.72,0006.61,0005.59
2022-07-18 01:49:00,,0827.6,5.01,0.00,29.2,27.6,00.0,37.9,31.1,26.1,0000.0,0022.37,0006.61,0005.57
2022-07-18 01:50:00,,0827.6,5.00,0.00,29.2,27.8,00.0,37.9,31.2,26.1,0000.0,0021.56,0006.63,0005.56
2022-07-18 01:51:00,,0827.6,4.99,0.00,29.3,28.0,00.0,37.9,31.3,26.0,0000.0,0021.18,0006.63,0005.55
2022-07-18 01:52:00,,0827.6,5.01,0.00,29.3,28.1,00.0,37.9,31.4,26.0,0000.0,0020.99,0006.65,0005.53
2022-07-18 01:53:00,,0827.6,5.01,0.00,29.4,27.7,00.0,37.9,31.3,25.9,0000.0,0021.56,0006.70,0005.54
2022-07-18 01:54:00,,0827.6,4.99,0.00,29.3,27.1,00.0,37.9,31.2,25.9,0000.0,0021.26,0006.71,0005.53
2022-07-18 01:55:00,,0827.6,5.01,0.00,29.3,27.0,00.0,37.9,31.1,26.0,0000.0,0020.88,0006.74,0005.54
2022-07-18 01:56:00,,0827.6,5.00,0.00,29.2,27.1,00.0,37.9,31.0,26.0,0000.0,0020.08,0006.75,0005.53
2022-07-18 01:57:00,,0827.6,5.00,0.00,29.2,27.3,00.0,37.9,31.0,26.1,0000.0,0020.27,0006.75,0005.54
2022-07-18 01:58:00,,0827.6,5.00,0.00,29.2,27.6,00.0,37.9,31.1,26.1,0000.0,0019.74,0006.72,0005.54
2022-07-18 01:59:00,,0827.6,5.00,0.00,29.3,27.8,00.0,37.9,31.2,26.2,0000.0,0018.91,0006.70,0005.54
